Simultaneous Nadir Overpasses (SNOs) Predictions

Prediction of SNOs between AQUA and GOES-15 Satellite Orbit:

Table of predicted SNOs for the next 14.0 days since TLE Epoch: 6/20/2015
Index Date Time (AQUA) AQUA Lat,Lon GOES-15 Lat,Lon Distance(km) Time Diff (sec)
1 06/20/2015 10:20:30 -0.73,-131.23 -0.05,-134.40 360.37 80
2 06/20/2015 22:41:54 -0.36,-136.42 0.07,-134.39 230.86 80
3 06/22/2015 22:29:41 0.26,-133.46 0.06,-134.48 115.24 80
4 06/23/2015 10:50:57 0.79,-138.63 -0.08,-134.53 466.13 80
5 06/24/2015 22:17:29 0.95,-130.51 0.06,-134.56 460.92 80
6 06/25/2015 10:38:44 0.16,-135.67 -0.08,-134.61 120.50 80
7 06/27/2015 10:26:31 -0.49,-132.71 -0.08,-134.69 224.49 80
8 06/27/2015 22:47:55 -0.59,-137.90 0.09,-134.68 366.81 80
9 06/29/2015 22:35:42 0.08,-134.95 0.10,-134.74 22.90 80
10 07/01/2015 22:23:28 0.69,-131.98 0.10,-134.80 320.62 80
11 07/02/2015 10:44:43 0.40,-137.14 -0.11,-134.84 261.86 80




NCC Satellite Simultaneous Nadir Overpasses (SNOs) Prediction Service
